Date,TemperatureHighF,TemperatureAvgF,TemperatureLowF,DewpointHighF,DewpointAvgF,DewpointLowF,HumidityHigh,HumidityAvg,HumidityLow,PressureMaxIn,PressureMinIn,WindSpeedMaxMPH,WindSpeedAvgMPH,GustSpeedMaxMPH,PrecipitationSumIn
2013-3-1,34.9,28.1,24.4,28.9,25.6,23.0,99,91,70,29.90,29.74,11,5,15,0.05
2013-3-2,34.5,26.1,16.0,23.2,17.4,10.5,94,71,44,29.96,29.87,12,5,17,0.00
2013-3-3,44.4,26.0,7.0,23.1,16.3,6.4,99,70,34,29.87,29.69,7,2,11,0.00
2013-3-4,44.6,35.1,29.5,32.9,29.6,23.1,99,81,58,29.70,29.49,13,5,19,0.01
2013-3-5,34.0,31.5,29.3,32.5,28.1,22.3,99,87,69,29.82,29.51,24,5,33,0.20
2013-3-6,36.3,28.1,16.2,24.6,22.1,14.8,96,78,60,30.05,29.81,18,6,27,0.00
2013-3-7,44.2,28.7,12.2,30.5,23.3,12.0,99,82,53,30.08,30.00,8,2,11,0.00
2013-3-8,49.3,37.0,25.0,35.0,31.0,24.6,99,81,57,30.07,29.84,14,4,19,0.00
2013-3-9,55.9,44.8,36.1,44.1,37.7,32.6,99,78,46,29.84,29.43,15,7,24,0.69
2013-3-10,54.0,48.4,40.5,50.8,46.9,36.2,99,96,52,29.44,29.27,15,4,23,0.77
2013-3-11,40.3,33.2,31.1,40.0,31.6,24.9,99,94,76,29.63,29.34,15,7,22,0.01
2013-3-12,43.2,32.4,24.6,32.5,25.9,22.1,92,77,58,29.86,29.60,16,7,32,0.00
2013-3-13,40.8,30.0,22.8,23.6,18.8,13.9,86,65,40,30.09,29.86,14,6,22,0.00
2013-3-14,58.5,38.8,21.9,37.1,27.0,18.3,88,64,35,30.03,29.75,12,4,19,0.00
2013-3-15,66.4,48.8,29.1,48.8,39.6,28.5,99,73,41,29.76,29.34,9,2,13,0.00
2013-3-16,51.1,40.0,35.4,47.2,37.4,31.5,99,91,82,29.75,29.32,14,5,24,0.00
2013-3-17,38.3,34.2,30.7,33.7,30.3,26.2,99,86,71,29.81,29.51,11,4,21,0.09
2013-3-18,67.3,37.0,30.0,40.3,30.9,18.2,99,81,41,29.68,29.37,20,6,33,0.09
2013-3-19,45.0,34.1,25.5,19.4,14.7,5.0,72,47,20,29.90,29.65,14,6,21,0.00
2013-3-20,33.8,29.8,29.5,23.7,20.0,19.4,68,66,58,29.85,29.82,11,8,19,0.00
2013-3-21,41.0,32.2,23.4,17.8,11.8,4.0,73,44,27,29.94,29.66,8,2,17,0.00
2013-3-22,40.8,30.5,16.9,24.9,20.1,14.9,97,68,41,29.87,29.81,7,1,11,0.00
2013-3-23,54.5,41.7,32.7,30.6,25.3,17.3,76,54,29,29.89,29.73,14,3,21,0.00
2013-3-24,37.9,30.4,28.9,32.6,30.1,28.7,99,99,75,29.77,29.47,13,3,21,0.00
2013-3-25,34.5,30.3,28.0,32.7,28.6,25.1,99,94,79,30.00,29.64,11,5,19,0.09
2013-3-26,43.7,34.0,26.8,28.0,24.8,20.5,88,71,42,30.15,30.00,8,4,14,0.00
2013-3-27,54.9,36.4,23.2,27.1,22.8,17.1,90,62,28,30.22,30.12,8,2,14,0.00
2013-3-28,51.3,38.7,26.6,35.2,28.7,23.5,93,69,44,30.18,30.09,9,3,15,0.00
2013-3-29,62.2,46.9,34.0,45.3,37.6,30.8,89,72,43,30.11,30.03,8,2,11,0.00
2013-3-30,55.8,46.6,34.3,46.6,42.1,33.7,99,86,58,30.03,29.73,16,6,22,0.00
2013-3-31,65.1,51.9,40.3,50.9,42.1,28.3,99,73,38,29.81,29.69,14,6,21,0.00